TimeEDT,TemperatureF,Dew PointF,Humidity,Sea Level PressureIn,VisibilityMPH,Wind Direction,Wind SpeedMPH,Gust SpeedMPH,PrecipitationIn,Events,Conditions,WindDirDegrees,DateUTC
12:29 AM,60.8,59.0,94,30.21,6.0,Calm,Calm,-,0.01,Rain,Light Rain,0,2013-09-19 04:29:00
12:51 AM,61.0,59.0,93,30.19,6.0,Calm,Calm,-,0.02,Rain,Light Rain,0,2013-09-19 04:51:00
12:55 AM,60.8,59.0,94,30.20,6.0,Calm,Calm,-,0.00,Rain,Light Rain,0,2013-09-19 04:55:00
1:01 AM,60.8,59.0,94,30.20,7.0,Calm,Calm,-,0.00,Rain,Light Rain,0,2013-09-19 05:01:00
1:11 AM,60.8,60.8,100,30.20,5.0,Calm,Calm,-,0.00,Rain,Light Rain,0,2013-09-19 05:11:00
1:51 AM,61.0,60.1,97,30.18,7.0,Calm,Calm,-,0.02,Rain,Light Rain,0,2013-09-19 05:51:00
2:51 AM,61.0,59.0,93,30.17,10.0,Calm,Calm,-,0.00,,Overcast,0,2013-09-19 06:51:00
2:59 AM,60.8,59.0,94,30.19,10.0,Calm,Calm,-,N/A,,Overcast,0,2013-09-19 06:59:00
3:51 AM,61.0,59.0,93,30.17,10.0,Calm,Calm,-,N/A,,Overcast,0,2013-09-19 07:51:00
4:51 AM,61.0,59.0,93,30.16,9.0,Calm,Calm,-,N/A,,Overcast,0,2013-09-19 08:51:00
5:29 AM,60.8,59.0,94,30.18,8.0,Calm,Calm,-,N/A,,Overcast,0,2013-09-19 09:29:00
5:47 AM,60.8,57.2,88,30.17,6.0,Calm,Calm,-,N/A,,Overcast,0,2013-09-19 09:47:00
5:51 AM,60.1,57.9,93,30.16,3.0,Calm,Calm,-,N/A,,Overcast,0,2013-09-19 09:51:00
5:58 AM,60.8,57.2,88,30.17,2.5,Calm,Calm,-,N/A,,Overcast,0,2013-09-19 09:58:00
6:05 AM,59.0,57.2,94,30.17,6.0,Calm,Calm,-,N/A,,Overcast,0,2013-09-19 10:05:00
6:16 AM,60.8,57.2,88,30.17,7.0,Calm,Calm,-,N/A,,Overcast,0,2013-09-19 10:16:00
6:42 AM,60.8,57.2,88,30.18,4.0,WSW,3.5,-,N/A,,Overcast,240,2013-09-19 10:42:00
6:51 AM,59.0,57.9,96,30.18,2.0,Calm,Calm,-,N/A,,Overcast,0,2013-09-19 10:51:00
7:06 AM,60.8,57.2,88,30.18,4.0,Calm,Calm,-,N/A,,Overcast,0,2013-09-19 11:06:00
7:18 AM,59.0,57.2,94,30.19,1.5,SW,4.6,-,N/A,,Overcast,230,2013-09-19 11:18:00
7:27 AM,59.0,57.2,94,30.19,0.5,SW,3.5,-,N/A,Fog,Fog,230,2013-09-19 11:27:00
7:51 AM,59.0,57.9,96,30.18,0.8,Calm,Calm,-,N/A,,Mist,0,2013-09-19 11:51:00
8:39 AM,59.0,57.2,94,30.20,1.2,SE,3.5,-,N/A,,Overcast,140,2013-09-19 12:39:00
8:46 AM,59.0,57.2,94,30.20,3.0,Calm,Calm,-,N/A,,Overcast,0,2013-09-19 12:46:00
8:51 AM,60.1,57.9,93,30.20,6.0,Calm,Calm,-,N/A,,Overcast,0,2013-09-19 12:51:00
9:46 AM,62.6,57.2,82,30.20,10.0,Calm,Calm,-,N/A,,Overcast,0,2013-09-19 13:46:00
9:51 AM,63.0,59.0,87,30.20,10.0,Calm,Calm,-,N/A,,Overcast,0,2013-09-19 13:51:00
10:51 AM,66.0,57.0,73,30.19,10.0,Calm,Calm,-,N/A,,Mostly Cloudy,0,2013-09-19 14:51:00
11:51 AM,70.0,57.0,63,30.18,10.0,Calm,Calm,-,N/A,,Mostly Cloudy,0,2013-09-19 15:51:00
12:51 PM,73.0,55.9,55,30.16,10.0,Calm,Calm,-,N/A,,Partly Cloudy,0,2013-09-19 16:51:00
1:51 PM,75.0,57.0,53,30.14,10.0,North,5.8,-,N/A,,Partly Cloudy,360,2013-09-19 17:51:00
2:51 PM,73.9,54.0,50,30.12,10.0,Calm,Calm,-,N/A,,Partly Cloudy,0,2013-09-19 18:51:00
3:51 PM,75.9,54.0,46,30.10,10.0,NW,5.8,-,N/A,,Partly Cloudy,310,2013-09-19 19:51:00
4:51 PM,75.0,54.0,48,30.10,10.0,WNW,4.6,-,N/A,,Clear,300,2013-09-19 20:51:00
5:51 PM,73.9,53.1,48,30.09,10.0,NW,3.5,-,N/A,,Clear,310,2013-09-19 21:51:00
6:51 PM,66.9,59.0,76,30.12,10.0,Calm,Calm,-,N/A,,Clear,0,2013-09-19 22:51:00
7:51 PM,63.0,57.0,81,30.13,10.0,Calm,Calm,-,N/A,,Clear,0,2013-09-19 23:51:00
8:51 PM,61.0,55.9,83,30.13,10.0,Calm,Calm,-,N/A,,Clear,0,2013-09-20 00:51:00
9:51 PM,59.0,55.9,90,30.12,10.0,Calm,Calm,-,N/A,,Clear,0,2013-09-20 01:51:00
10:33 PM,60.8,57.2,88,30.12,10.0,Calm,Calm,-,N/A,,Overcast,0,2013-09-20 02:33:00
10:42 PM,60.8,57.2,88,30.12,10.0,Calm,Calm,-,N/A,,Overcast,0,2013-09-20 02:42:00
10:51 PM,60.1,57.0,90,30.11,10.0,Calm,Calm,-,N/A,,Mostly Cloudy,0,2013-09-20 02:51:00
11:51 PM,57.9,55.0,90,30.12,8.0,Calm,Calm,-,N/A,,Scattered Clouds,0,2013-09-20 03:51:00